Regional Weather Roundup
Issued by NWS

Home | Current Version | Previous Version | Text Only | Print | Product List | Glossary On
Versions: 1 2 3 4 5 6 7 8 9 10 11 12 13 14 15 16 17 18 19 20 21 22 23 24 25 26 27 28
000
ASPQ40 PGUM 230812
RWRPQ
WEATHER ROUNDUP FOR THE MARIANAS AND MICRONESIA
NATIONAL WEATHER SERVICE TIYAN GU
600 PM CHST MON OCT 23 2017

GUZ001>004-230900-
MARIANA ISLANDS-

CITY           SKY/WX    TMP DP  RH WIND       PRES   REMARKS
GUAM AIRPORT   PTCLDY    82  81  94 NE6       29.73R HX  95
ANDERSEN AFB   PTCLDY    82  79  89 NE9       29.73R HX  93
ROTA AIRPORT   MOCLDY    81  79  94 NE8       29.73R
TINIAN AP      MOCLDY    81  79  94 E13       29.72R
SAIPAN AP      LGT RAIN  82  81  94 E15       29.73R FOG     HX  95

$$

PMZ161-230900-
REPUBLIC OF PALAU-

CITY           SKY/WX    TMP DP  RH WIND       PRES   REMARKS
KOROR AP       MOCLDY    84  77  79 W12       29.76R HX  94
KOROR WSO      CLOUDY    84  75  74 W8        29.77R HX  92

$$

PMZ171>174-230900-
FEDERATED STATES OF MICRONESIA-

CITY           SKY/WX    TMP DP  RH WIND       PRES   REMARKS
YAP AIRPORT    HVY RAIN  79  75  89 NW12      29.72S
CHUUK AP       LGT RAIN  79  79 100 VRB6      29.78R
POHNPEI AP     NOT AVBL
POHNPEI WSO    CLOUDY    82  77  83 SE3       29.86R HX  91
KOSRAE AP      NOT AVBL

$$

PMZ181-230900-
REPUBLIC OF THE MARSHALL ISLANDS-

CITY           SKY/WX    TMP DP  RH WIND       PRES   REMARKS
KWAJALEIN AP   PTCLDY    84  75  74 NE15      29.93R HX  92
MAJURO AP      PTCLDY    86  77  74 NE13      29.92R HX  97
MAJURO WSO     PTCLDY    84  77  79 E9        29.91R HX  94

$$





USA.gov is the U.S. government's official web portal to all federal, state and local government web resources and services.